Jackpot

Texas Poker Multi Jackpot System

Kini Telah hadir Jackpot SUPER ROYAL FLUSH

Kini Telah hadir Jackpot 2000 (khusus table VIP keatas).

Ikutilah global jackpot yang tersedia di system kami, dengan system jackpot terbaru dan pertama di indonesia, anda dapat membeli jackpot dengan harga 100 rupiah saja dan menangkan hadiahnya hingga puluhan juta rupiah.

Jackpot bukanlah suatu keharusan untuk dibeli, namun kami memberikan suatu fitur tambahan untuk member tercinta dari www.remibet.net.

Terdapat tiga pilihan harga jackpot yang bisa anda beli yaitu :100,500,1000 dan 2000(khusus table VIP Keatas) rupiah.

Hadiah dari Multi jackpot system www.remibet.net

  1. full house x 10 harga jackpot yang anda beli.
      (contoh:anda membeli 1000 maka:1000 X10 = 10.000)
  2. four of kind x 250 harga jackpot yang anda beli
      (contoh:anda membeli 1000 maka:1000 X250 = 250.000)
  3. Straight flush x 1200
      (contoh:anda membeli 1000 maka:1000 X1200 = 1.200.000)
  4. Royal flush x 10000 harga jackpot yang anda beli
      (contoh:anda membeli 1000 maka:1000 X10000 = 10.000.000)
  5. SUPER ROYAL FLUSH x 30000 harga jackpot yang anda beli
      (contoh:anda membeli 1000 maka:1000 X30000 = 30.000.000)

Kondisi kartu

  1. full house adalah kondisi kartu dimana kartu anda dan kartu tengah dengan total 7 kartu bisa mendapatkan nilai 5 kartu dengan kombinasi 1 tris(three of kind) dan 1 pair, contoh 3 kartu 10 dan 2 kartu 5
  2. Four of kind adalah kondisi kartu dimana kartu anda dan kartu tengah dengan total 7 kartu bisa mendapatkan nilai 5 kartu dengan kombinasi 4 kartu yang sama jumlah dan 1 kartu apapun juga contoh anda mendapatkan 4 buah kartu angka 3 dan 1 kartu apapun.
  3. Staright flush adalah kondisi kartu dimana kartu anda dan kartu tengah dengan total 7 kartu bisa mendapatkan nilai 5 kartu dengan kombinasi seri / staright dengan kembang yang sama contoh : urutan kartu dari angka 5, 6, 7, 8 , 9 10 dengan kembang yg sama misalnya as hati
  4. Royal flush adalah kondisi kartu dimana kartu anda dan kartu tengah dengan total 7 kartu bisa mendapatkan nilai 5 kartu dengan kombinasi seri / staright dengan kembang yang sama tetapi kartu tersebut haruslah dimulai dari 10. contoh 10, Queen, Jack, King dan aces dengan kembang yang sama
  5. Super Royal flush adalah kondisi kartu dimana Kedua kartu anda digabung dengan 3 kartu pertama meja haruslah royal flush. contoh kartu anda 10,Queen kembang sama dan 3 kartu pertama meja adalah Jack, King dan aces dengan kembang yang sama

Demikian adalah penjelasan dari Multi Jackpot www.remibet.net terima kasih dan selamat bermain salam hoki dari kami

Texas Poker Jackpot Winner

TOP SUPER ROYAL FLUSH
No.TanggalNamaPriceWin
123/06 21:17POYOK03Super Royal flush3,000,000
223/06 21:10GOTILA12Super Royal flush15,000,000
323/06 17:10MRF88Super Royal flush3,000,000
423/06 14:02OSRAK99Super Royal flush3,000,000
523/06 10:44DEWI006Super Royal flush15,000,000
TOP ROYAL FLUSH
No.TanggalNamaPriceWin
123/06 22:10KERUXSRoyal flush5,000,000
223/06 21:52JOELOHENSRoyal flush10,000,000
323/06 21:35MALAU2808Royal flush5,000,000
423/06 21:25D195E40ERoyal flush5,000,000
523/06 21:25TRADORoyal flush1,000,000
TOP STRAIGHT FLUSH
No.TanggalNamaPriceWin
123/06 22:32REHMAN7272Straight Flush600,000
223/06 22:32IDNGDAND2Straight Flush600,000
323/06 22:30AIL1717Straight Flush600,000
423/06 22:29PYWX6UDIKJStraight Flush600,000
523/06 22:25ALJNKY88Straight Flush600,000
LATEST JACKPOT
No.TanggalNamaPriceWin
123/06 22:33MUISDGTIKAFull House10,000
223/06 22:33CUANFull House20,000
323/06 22:33AHDPYIEHDQFull House5,000
423/06 22:33PUNTULFull House5,000
523/06 22:33JUTAJUTAFull House1,000
623/06 22:33GOLAN666Full House1,000
723/06 22:33TALLAGOFull House5,000
823/06 22:33ASRAPFull House5,000
923/06 22:33YANTI00Full House1,000
1023/06 22:33PADEL546Full House5,000
1123/06 22:33MABUKZINETFull House1,000
1223/06 22:33OZJANFull House10,000
1323/06 22:33BKCXPKIX9DFull House1,000
1423/06 22:33C75BC592Full House5,000
1523/06 22:33RI5NAFull House5,000
1623/06 22:33CKB5Y55T1BFull House5,000
1723/06 22:33ORG_SUSAFull House1,000
1823/06 22:33DWI4TUN4Full House20,000
1923/06 22:33LINAR055Full House10,000
2023/06 22:33BL4CK75Full House1,000
2123/06 22:32PALUYAFull House20,000
2223/06 22:32KAMSIEE99Full House5,000
2323/06 22:32JUPRI77Full House5,000
2423/06 22:32SONYA46Full House10,000
2523/06 22:32HANS64Full House20,000
2623/06 22:32BUNGLON99Full House20,000
2723/06 22:32YADIE17Full House5,000
2823/06 22:32REHMAN7272Straight Flush600,000
2923/06 22:32ACAY10Four Of A Kind125,000
3023/06 22:32IF7RZUABYXFull House5,000
3123/06 22:32RU57YFull House1,000
3223/06 22:32LOJI17Four Of A Kind25,000
3323/06 22:32SIMURUK21Full House1,000
3423/06 22:32LUNCU8Full House5,000
3523/06 22:32INDRADJATIFull House5,000
3623/06 22:32MEX22Full House1,000
3723/06 22:32GIO123SSFull House10,000
3823/06 22:32JANG58Full House10,000
3923/06 22:32TEMPUR1234Full House5,000
4023/06 22:32G22791J149Full House5,000
4123/06 22:32ADONKAPFull House1,000
4223/06 22:32BF4AB9F1Full House5,000
4323/06 22:32SF9TPIA0FYFour Of A Kind25,000
4423/06 22:32GTUNAN467Full House1,000
4523/06 22:32HAM_KA88Full House5,000
4623/06 22:32GARFUH99Full House5,000
4723/06 22:32RAY56Full House10,000
4823/06 22:32T4DTIAN2011Four Of A Kind250,000
4923/06 22:32ROSUL9Full House1,000
5023/06 22:32JUARA2413Full House5,000

Domino Multi Jackpot System

Ikutilah global jackpot yang tersedia di system kami, dengan system jackpot terbaru dan pertama di indonesia, anda dapat membeli jackpot dengan harga 100 rupiah saja dan menangkan hadiahnya hingga puluhan juta rupiah.

Jackpot bukanlah suatu keharusan untuk dibeli, namun kami memberikan suatu fitur tambahan untuk member tercinta dari www.remibet.net.

Terdapat tiga pilihan harga jackpot yang bisa anda beli yaitu :100,500 dan 1000 rupiah.

Hadiah dari Multi jackpot system www.remibet.net

  1. Murni Kecil x 50 harga jackpot yang anda beli.
      (contoh:anda membeli 1000 maka:1000 X 50 = 50.000)
  2. Murni Besar x 50 harga jackpot yang anda beli
      (contoh:anda membeli 1000 maka:1000 X 50 = 50.000)
  3. BALAK x 100 harga jackpot yang anda beli
      (contoh:anda membeli 1000 maka:1000 X 100 = 100.000)
  4. ENAM DEWA x 6666 harga jackpot yang anda beli
      (contoh:anda membeli 1000 maka:1000 X 6666 = 6.666.000)

Demikian adalah penjelasan dari Multi Jackpot www.remibet.net terima kasih dan selamat bermain salam hoki dari kami

Domino Jackpot Winner

TOP ENAM DEWA
No.TanggalNamaPriceWin
123/06 22:10RAMPASX99murni enam6,666,000
223/06 21:55DWICANDRAmurni enam6,666,000
323/06 21:44AMIABLEHmurni enam3,333,000
423/06 20:10FA_JAR_99murni enam3,333,000
523/06 20:06REGGEA99murni enam666,600
TOP BALAK
No.TanggalNamaPriceWin
123/06 22:32FARID580balak100,000
223/06 22:32JECKY86balak100,000
323/06 22:28FELICIA15balak50,000
423/06 22:26WAHYURRbalak50,000
523/06 22:25AMIABLEHbalak50,000
LATEST JACKPOT
No.TanggalNamaPriceWin
123/06 22:32BANCEROT1murni kecil5,000
223/06 22:32SITORUS191murni besar5,000
323/06 22:32FARID580balak100,000
423/06 22:32JECKY86balak100,000
523/06 22:32HITAM333murni besar50,000
623/06 22:31KOANGBULUmurni kecil25,000
723/06 22:31AAXXAA99murni kecil50,000
823/06 22:31ARIP0101murni besar5,000
923/06 22:31MURAEMAS01murni besar50,000
1023/06 22:31BEXS27murni kecil50,000
1123/06 22:31GASKXmurni besar50,000
1223/06 22:30D10Nmurni besar50,000
1323/06 22:30ANAANI123murni besar50,000
1423/06 22:30AC69murni besar50,000
1523/06 22:28DEBY06murni besar50,000
1623/06 22:28FELICIA15balak50,000
1723/06 22:28BABOL70murni besar25,000
1823/06 22:27JM67murni kecil50,000
1923/06 22:27J1010murni besar50,000
2023/06 22:27D2DE6D77murni kecil5,000
2123/06 22:26DYASTAmurni besar5,000
2223/06 22:26WAHYURRbalak50,000
2323/06 22:26VIKNIZTAmurni besar50,000
2423/06 22:25APEK1259murni kecil25,000
2523/06 22:25MRKUCLAX37murni besar25,000
2623/06 22:2501SONGJImurni besar50,000
2723/06 22:25AMIABLEHbalak50,000
2823/06 22:24AARROO100murni besar25,000
2923/06 22:24RENITA11balak50,000
3023/06 22:24RIBAX99murni kecil25,000
3123/06 22:24PIKPIK257murni kecil50,000
3223/06 22:24BABIADU99balak100,000
3323/06 22:23CHACHA866murni besar50,000
3423/06 22:23JHONJHIN11murni kecil5,000
3523/06 22:23ERNHYANDHYmurni besar5,000
3623/06 22:23EBAWNOL36murni besar5,000
3723/06 22:23MURAEMAS01murni kecil50,000
3823/06 22:23MINIPOR88murni besar50,000
3923/06 22:22HAZARD02murni besar25,000
4023/06 22:22BADIKTAENGmurni kecil25,000
4123/06 22:22KERCImurni besar50,000
4223/06 22:21JLO201balak10,000
4323/06 22:21IDRIS45Umurni kecil25,000
4423/06 22:21UJJ0OUANKSmurni besar25,000
4523/06 22:21JANGGUIK1murni besar50,000
4623/06 22:20TORLEPmurni kecil50,000
4723/06 22:20ABC480murni besar50,000
4823/06 22:20ALONSO24murni kecil50,000
4923/06 22:20E4YJ7CMLE4balak100,000
5023/06 22:20BORJU35murni kecil50,000

Ceme Multi Jackpot System

Jackpot dilihat dari gabungan kartu pemain dengan kartu bandar. Bandar harus membeli jackpot sebanyak jumlah player yang sedang duduk. Sebagai contoh bila terdapat 3 pemain duduk bermain, dan bandar memutuskan untuk membeli jackpot Rp 1.000, maka pada periode tersebut bandar akan membeli jackpot sebanyak 3xRp1.000 = Rp3.000.

Jackpot bukanlah suatu keharusan untuk dibeli, namun kami memberikan suatu fitur tambahan untuk member tercinta dari www.remibet.net.

Terdapat tiga pilihan harga jackpot yang bisa anda beli yaitu :100,500 dan 1000 rupiah.

Hadiah dari Multi jackpot system www.remibet.net

  1. Murni Kecil x 50 harga jackpot yang anda beli.
      (contoh:anda membeli 1000 maka:1000 X 50 = 50.000)
  2. Murni Besar x 50 harga jackpot yang anda beli
      (contoh:anda membeli 1000 maka:1000 X 50 = 50.000)
  3. BALAK x 200 harga jackpot yang anda beli
      (contoh:anda membeli 1000 maka:1000 X 200 = 200.000)
  4. ENAM DEWA x 6666 harga jackpot yang anda beli
      (contoh:anda membeli 1000 maka:1000 X 6666 = 6.666.000)

Demikian adalah penjelasan dari Multi Jackpot www.remibet.net terima kasih dan selamat bermain salam hoki dari kami

Ceme Jackpot Winner

TOP ENAM DEWA
No.TanggalNamaPriceWin
123/06 22:04ACHMAD409murni enam6,666,000
223/06 22:01FRANKY86murni enam666,600
323/06 21:59AKU18252murni enam6,666,000
423/06 21:51ALMUNIUM22murni enam6,666,000
523/06 21:45MURICAmurni enam666,600
TOP BALAK
No.TanggalNamaPriceWin
123/06 22:32RIKIGAGOKbalak100,000
223/06 22:32AAKHABKH98balak20,000
323/06 22:32MZGUSAYbalak100,000
423/06 22:32SOONGOOObalak200,000
523/06 22:31UJANG420balak20,000
LATEST JACKPOT
No.TanggalNamaPriceWin
123/06 22:32RIKIGAGOKbalak100,000
223/06 22:32AAKHABKH98balak20,000
323/06 22:32TRUMP911murni besar5,000
423/06 22:32SABENS889murni besar25,000
523/06 22:32BAPEDA18murni besar5,000
623/06 22:32MZGUSAYbalak100,000
723/06 22:32O26634I3IWmurni kecil50,000
823/06 22:32SOONGOOObalak200,000
923/06 22:32C3K4Umurni kecil50,000
1023/06 22:32WESKUDOROmurni besar50,000
1123/06 22:31UJANG420balak20,000
1223/06 22:31ANDI3H9murni kecil50,000
1323/06 22:31TORO40murni besar5,000
1423/06 22:31IMAM868686murni besar50,000
1523/06 22:31GROUP86balak100,000
1623/06 22:31BULU90murni besar50,000
1723/06 22:31DJOE21murni besar50,000
1823/06 22:31OGLEXOKmurni kecil50,000
1923/06 22:31DANKERS152murni kecil5,000
2023/06 22:31M4KMUR369murni kecil50,000
2123/06 22:30DINTUL01murni besar5,000
2223/06 22:30CHO2PETmurni besar5,000
2323/06 22:30YU2N33Nmurni kecil50,000
2423/06 22:30IDA1991murni kecil50,000
2523/06 22:30SALWA13murni kecil50,000
2623/06 22:30BL4CKM1LDbalak200,000
2723/06 22:30DEWA_JD9murni kecil25,000
2823/06 22:30QOYIDmurni kecil5,000
2923/06 22:30RRENCU48balak200,000
3023/06 22:30TEGAR_TYOmurni kecil25,000
3123/06 22:30MKSFJCO7T4murni besar5,000
3223/06 22:30MOKO411murni besar50,000
3323/06 22:29S4DAMmurni kecil50,000
3423/06 22:29WONK_999murni kecil50,000
3523/06 22:29PIECHES89murni kecil50,000
3623/06 22:29YU2N33Nmurni kecil50,000
3723/06 22:29JOJOKECEmurni kecil50,000
3823/06 22:29IDA1991murni kecil50,000
3923/06 22:29GROS69murni kecil5,000
4023/06 22:29ZULKIFLI45murni kecil5,000
4123/06 22:29TAMA866murni kecil50,000
4223/06 22:29PENDRI06murni kecil50,000
4323/06 22:29KPNTmurni kecil50,000
4423/06 22:29ANGELEDOmurni kecil50,000
4523/06 22:29FERARI84murni kecil50,000
4623/06 22:29BIGO106murni besar50,000
4723/06 22:28IZ625605murni kecil25,000
4823/06 22:28FEBI2710murni kecil25,000
4923/06 22:28MAVERICK94murni kecil50,000
5023/06 22:28AYIK3111murni kecil5,000